FW6441 Weather Reports


time (UTC)temp
C
wind
direction
speed
KPH
gust
KPH
rain 1hr
cm
rain 24hr
cm
rain mn
cm
humidity
%
barometer
mb
20260504000426 15 158 3.2 9.7 0.00 0.00 0.00 80 1013.6
20260503235930 15 172 3.2 8.0 0.00 0.00 0.00 79 1013.7
20260503235426 15 167 4.8 11.3 0.00 0.00 0.00 79 1013.7
20260503234928 15 164 6.4 12.9 0.00 0.00 0.00 79 1013.7
20260503234426 15 166 6.4 12.9 0.00 0.00 0.00 79 1013.8
20260503233929 15 161 4.8 11.3 0.00 0.00 0.00 79 1013.7
20260503233428 15 160 6.4 12.9 0.00 0.00 0.00 78 1013.8
20260503232429 15 158 6.4 11.3 0.00 0.00 0.00 78 1013.8
20260503231430 16 165 3.2 11.3 0.00 0.00 0.00 77 1013.9
20260503230425 16 177 6.4 11.3 0.00 0.00 0.00 76 1013.9
20260503225926 16 181 6.4 12.9 0.00 0.00 0.00 76 1013.9
20260503225426 16 182 6.4 12.9 0.00 0.00 0.00 76 1013.9
20260503224929 16 177 4.8 14.5 0.00 0.00 0.00 76 1014.0
20260503224429 16 187 4.8 14.5 0.00 0.00 0.00 75 1014.0
20260503223425 16 210 6.4 12.9 0.00 0.00 0.00 75 1014.0
20260503222426 16 213 4.8 12.9 0.00 0.00 0.00 75 1014.0
20260503221925 16 215 6.4 12.9 0.00 0.00 0.00 75 1014.1
20260503220930 16 222 6.4 14.5 0.00 0.00 0.00 75 1014.1
20260503215931 16 226 6.4 11.3 0.00 0.00 0.00 74 1014.0
20260503215426 16 232 6.4 12.9 0.00 0.00 0.00 74 1013.9
20260503214925 16 230 6.4 12.9 0.00 0.00 0.00 75 1014.0
20260503214426 16 223 4.8 11.3 0.00 0.00 0.00 75 1013.9
20260503213925 16 221 4.8 9.7 0.00 0.00 0.00 75 1013.9
20260503213429 16 223 4.8 9.7 0.00 0.00 0.00 75 1013.9
20260503212925 16 226 6.4 9.7 0.00 0.00 0.00 74 1013.9
20260503211925 17 235 4.8 11.3 0.00 0.00 0.00 74 1013.9
20260503211426 17 233 6.4 12.9 0.00 0.00 0.00 74 1013.8
20260503210426 17 233 3.2 11.3 0.00 0.00 0.00 73 1013.8
20260503205925 17 232 4.8 12.9 0.00 0.00 0.00 74 1013.7
20260503205425 17 235 6.4 14.5 0.00 0.00 0.00 73 1013.8
20260503204929 17 237 6.4 14.5 0.00 0.00 0.00 73 1013.7
20260503204426 17 237 8.0 16.1 0.00 0.00 0.00 73 1013.6
20260503203925 17 237 8.0 17.7 0.00 0.00 0.00 73 1013.5
20260503203426 17 239 6.4 17.7 0.00 0.00 0.00 72 1013.5
20260503202925 17 253 6.4 16.1 0.00 0.00 0.00 72 1013.4
20260503202426 17 262 6.4 16.1 0.00 0.00 0.00 71 1013.3
20260503201925 17 250 6.4 14.5 0.00 0.00 0.00 71 1013.3
20260503201425 17 247 6.4 12.9 0.00 0.00 0.00 71 1013.3
20260503200429 17 242 9.7 16.1 0.00 0.00 0.00 70 1013.1
20260503195928 17 239 9.7 19.3 0.00 0.00 0.00 69 1013.0
20260503195428 18 249 8.0 19.3 0.00 0.00 0.00 69 1013.0
20260503194929 18 250 8.0 19.3 0.00 0.00 0.00 68 1012.9
20260503194425 18 259 8.0 19.3 0.00 0.00 0.00 68 1012.9
20260503193929 18 258 8.0 17.7 0.00 0.00 0.00 67 1012.7
20260503193429 18 251 8.0 22.5 0.00 0.00 0.00 67 1012.7
20260503192426 18 264 9.7 22.5 0.00 0.00 0.00 65 1012.7
20260503191925 18 261 8.0 20.9 0.00 0.00 0.00 65 1012.6
20260503191426 18 255 9.7 22.5 0.00 0.00 0.00 64 1012.6
20260503190925 19 240 9.7 22.5 0.00 0.00 0.00 63 1012.5
20260503190429 19 244 9.7 24.1 0.00 0.00 0.00 62 1012.5
20260503185925 19 243 9.7 24.1 0.00 0.00 0.00 60 1012.4
20260503185428 19 236 11.3 22.5 0.00 0.00 0.00 59 1012.4
20260503184429 20 244 11.3 22.5 0.00 0.00 0.00 60 1012.3
20260503183929 20 239 12.9 25.7 0.00 0.00 0.00 61 1012.3
20260503183425 20 236 14.5 29.0 0.00 0.00 0.00 61 1012.4
20260503182925 20 234 16.1 29.0 0.00 0.00 0.00 60 1012.3
20260503182429 20 234 16.1 27.4 0.00 0.00 0.00 59 1012.3
20260503181429 20 238 16.1 27.4 0.00 0.00 0.00 57 1012.4
20260503180925 21 245 12.9 27.4 0.00 0.00 0.00 56 1012.4
20260503180429 21 243 12.9 30.6 0.00 0.00 0.00 57 1012.3
20260503175929 21 235 14.5 30.6 0.00 0.00 0.00 57 1012.3
20260503174925 21 245 11.3 30.6 0.00 0.00 0.00 56 1012.3
20260503174425 21 245 11.3 30.6 0.00 0.00 0.00 55 1012.1
20260503173925 21 243 11.3 22.5 0.00 0.00 0.00 54 1012.2
20260503173425 22 247 12.9 24.1 0.00 0.00 0.00 54 1012.1
20260503172928 22 247 12.9 24.1 0.00 0.00 0.00 54 1012.1
20260503172428 22 246 12.9 24.1 0.00 0.00 0.00 54 1012.1
20260503171429 22 237 14.5 27.4 0.00 0.00 0.00 54 1012.1
20260503170926 22 248 12.9 29.0 0.00 0.00 0.00 53 1012.3
20260503170425 22 267 11.3 29.0 0.00 0.00 0.00 52 1012.1
20260503150424 23 243 12.9 24.1 0.00 0.00 0.00 47 1012.3
20260503130925 23 261 9.7 25.7 0.00 0.00 0.00 51 1012.9
20260503090424 20 214 6.4 20.9 0.00 0.00 0.00 73 1014.2
20260503081424 18 218 4.8 14.5 0.00 0.00 0.00 79 1014.2
20260503080925 18 223 6.4 12.9 0.00 0.00 0.00 79 1014.1
20260503080424 18 224 8.0 12.9 0.00 0.00 0.00 80 1014.3
20260503072925 17 227 4.8 8.0 0.00 0.00 0.00 84 1014.1
20260503072424 17 214 3.2 8.0 0.00 0.00 0.00 85 1014.1
20260503071924 17 197 4.8 9.7 0.00 0.00 0.00 85 1014.1
20260503071424 17 189 3.2 9.7 0.00 0.00 0.00 86 1014.0
20260503070928 17 197 3.2 8.0 0.00 0.00 0.00 86 1014.0
20260503070428 16 225 4.8 9.7 0.00 0.00 0.00 86 1014.0
20260503054924 16 166 3.2 8.0 0.00 0.00 0.00 86 1013.6
20260503054427 16 162 1.6 6.4 0.00 0.00 0.00 86 1013.6
20260503053928 16 161 1.6 4.8 0.00 0.00 0.00 86 1013.5
20260503053424 16 160 1.6 3.2 0.00 0.00 0.00 86 1013.4
20260503052928 16 161 1.6 4.8 0.00 0.00 0.00 86 1013.4
20260503051924 16 161 1.6 4.8 0.00 0.00 0.00 86 1013.5
20260503051424 16 161 1.6 4.8 0.00 0.00 0.00 86 1013.5
20260503050924 16 160 1.6 4.8 0.00 0.00 0.00 86 1013.4
20260503050424 16 160 1.6 4.8 0.00 0.00 0.00 86 1013.4
20260503045924 16 160 1.6 4.8 0.00 0.00 0.00 86 1013.4
20260503045424 16 160 3.2 8.0 0.00 0.00 0.00 85 1013.4
20260503044924 16 163 3.2 8.0 0.00 0.00 0.00 85 1013.4
20260503044424 16 170 1.6 8.0 0.00 0.00 0.00 85 1013.4
20260503043928 16 186 1.6 4.8 0.00 0.00 0.00 85 1013.5
20260503043424 16 186 1.6 3.2 0.00 0.00 0.00 85 1013.5
20260503042927 16 186 1.6 4.8 0.00 0.00 0.00 85 1013.4
20260503042424 16 187 1.6 4.8 0.00 0.00 0.00 85 1013.5
20260503041928 16 188 1.6 4.8 0.00 0.00 0.00 85 1013.5
20260503040924 16 186 1.6 6.4 0.00 0.00 0.00 84 1013.4
20260503040428 16 183 1.6 6.4 0.00 0.00 0.00 84 1013.5
20260503035424 17 184 1.6 6.4 0.00 0.00 0.00 84 1013.7
20260503034923 17 193 3.2 6.4 0.00 0.00 0.00 83 1013.6
20260503034428 17 202 1.6 6.4 0.00 0.00 0.00 83 1013.7
20260503033924 17 207 1.6 4.8 0.00 0.00 0.00 83 1013.7
20260503033427 17 207 1.6 6.4 0.00 0.00 0.00 83 1013.6
20260503032925 17 216 3.2 8.0 0.00 0.00 0.00 83 1013.6
20260503032424 17 252 3.2 9.7 0.00 0.00 0.00 83 1013.6
20260503031923 17 277 3.2 9.7 0.00 0.00 0.00 83 1013.7
20260503031425 17 269 3.2 9.7 0.00 0.00 0.00 83 1013.8
20260503030424 17 220 4.8 9.7 0.00 0.00 0.00 82 1013.8
20260503025928 17 218 3.2 6.4 0.00 0.00 0.00 82 1013.9
20260503025424 17 214 1.6 6.4 0.00 0.00 0.00 82 1013.7
20260503024924 17 223 1.6 6.4 0.00 0.00 0.00 82 1013.7
20260503024424 17 226 3.2 6.4 0.00 0.00 0.00 82 1013.7
20260503023923 17 230 3.2 6.4 0.00 0.00 0.00 82 1013.8
20260503023424 17 218 3.2 6.4 0.00 0.00 0.00 82 1013.8
20260503022927 17 215 3.2 8.0 0.00 0.00 0.00 82 1013.7
20260503022424 17 228 4.8 9.7 0.00 0.00 0.00 82 1014.0
20260503021925 17 220 3.2 9.7 0.00 0.00 0.00 82 1014.0
20260503021427 17 175 1.6 6.4 0.00 0.00 0.00 82 1013.9
20260503020924 17 175 1.6 6.4 0.00 0.00 0.00 82 1013.8
20260503015930 17 186 3.2 6.4 0.00 0.00 0.00 82 1013.8
20260503015434 17 200 3.2 11.3 0.00 0.00 0.00 82 1013.9
20260503014930 17 193 4.8 11.3 0.00 0.00 0.00 82 1014.0
20260503014430 17 184 4.8 11.3 0.00 0.00 0.00 81 1014.0
20260503013930 17 183 4.8 9.7 0.00 0.00 0.00 81 1014.2
20260503013434 17 178 4.8 9.7 0.00 0.00 0.00 81 1014.3
20260503012934 17 190 4.8 9.7 0.00 0.00 0.00 81 1014.4
20260503012430 17 197 4.8 11.3 0.00 0.00 0.00 81 1014.4
20260503011930 17 186 4.8 12.9 0.00 0.00 0.00 81 1014.6
20260503010930 17 188 4.8 11.3 0.00 0.00 0.00 80 1014.6
20260503010434 17 194 4.8 12.9 0.00 0.00 0.00 80 1014.7
20260503005934 17 206 3.2 12.9 0.00 0.00 0.00 80 1014.9
20260503005431 17 197 4.8 11.3 0.00 0.00 0.00 79 1015.0
20260503004934 17 206 4.8 11.3 0.00 0.00 0.00 79 1015.1
20260503003934 17 208 3.2 11.3 0.00 0.00 0.00 78 1015.1
20260503003430 17 204 3.2 11.3 0.00 0.00 0.00 78 1015.1
20260503002934 17 201 4.8 11.3 0.00 0.00 0.00 78 1015.1
20260503002431 17 211 4.8 9.7 0.00 0.00 0.00 77 1015.1
20260503001930 17 221 4.8 9.7 0.00 0.00 0.00 77 1015.2
20260503000930 17 224 4.8 9.7 0.00 0.00 0.00 76 1015.3